Time,TemperatureF,DewpointF,PressureIn,WindDirection,WindDirectionDegrees,WindSpeedMPH,WindSpeedGustMPH,Humidity,HourlyPrecipIn,Conditions,Clouds,dailyrainin,SoftwareType,DateUTC
2013-02-28 00:00:00,32.7,31.2,29.64,WSW,254,11.0,13.0,94,0.00,,OVC OVC///CB,0.26,WUHU216DAVISVP2,2013-02-28 05:00:00,
2013-02-28 00:05:00,32.6,31.1,29.64,SSW,203,3.0,13.0,94,0.00,,OVC OVC///CB,0.00,WUHU216DAVISVP2,2013-02-28 05:05:00,
2013-02-28 00:10:00,32.6,31.4,29.64,WSW,240,5.0,12.0,95,0.00,,OVC OVC///CB,0.00,WUHU216DAVISVP2,2013-02-28 05:10:00,
2013-02-28 00:15:00,32.5,31.3,29.64,SW,220,2.0,11.0,95,0.00,,OVC OVC///CB,0.00,WUHU216DAVISVP2,2013-02-28 05:15:00,
2013-02-28 00:20:00,32.5,31.3,29.64,WSW,239,4.0,12.0,95,0.00,,OVC OVC///CB,0.00,WUHU216DAVISVP2,2013-02-28 05:20:00,
2013-02-28 00:25:00,32.5,31.0,29.64,SW,232,3.0,12.0,94,0.00,,OVC OVC///CB,0.00,WUHU216DAVISVP2,2013-02-28 05:25:00,
2013-02-28 00:30:00,32.5,31.3,29.64,WSW,245,3.0,11.0,95,0.00,,OVC OVC///CB,0.00,WUHU216DAVISVP2,2013-02-28 05:30:00,
2013-02-28 00:35:00,32.5,31.3,29.64,SSW,203,1.0,11.0,95,0.00,,OVC OVC///CB,0.00,WUHU216DAVISVP2,2013-02-28 05:35:00,
2013-02-28 00:40:00,32.5,31.3,29.64,West,264,4.0,8.0,95,0.00,,OVC OVC///CB,0.00,WUHU216DAVISVP2,2013-02-28 05:40:00,
2013-02-28 00:45:00,32.5,31.0,29.64,WSW,243,7.0,11.0,94,0.00,,OVC OVC///CB,0.00,WUHU216DAVISVP2,2013-02-28 05:45:00,
2013-02-28 00:50:00,32.5,31.0,29.64,SW,235,1.0,11.0,94,0.00,,OVC OVC///CB,0.00,WUHU216DAVISVP2,2013-02-28 05:50:00,
2013-02-28 00:55:00,32.5,31.3,29.63,SSW,212,5.0,11.0,95,0.00,,OVC OVC///CB,0.00,WUHU216DAVISVP2,2013-02-28 05:55:00,
2013-02-28 01:00:00,32.5,31.3,29.63,SW,231,8.0,10.0,95,0.00,,OVC OVC///CB,0.00,WUHU216DAVISVP2,2013-02-28 06:00:00,
2013-02-28 01:05:00,32.5,31.0,29.63,WSW,242,2.0,10.0,94,0.00,,OVC OVC///CB,0.00,WUHU216DAVISVP2,2013-02-28 06:05:00,
2013-02-28 01:10:00,32.5,31.3,29.64,SW,221,1.0,10.0,95,0.00,,OVC OVC///CB,0.00,WUHU216DAVISVP2,2013-02-28 06:10:00,
2013-02-28 01:15:00,32.5,31.0,29.63,WSW,242,1.0,9.0,94,0.00,,OVC OVC///CB,0.00,WUHU216DAVISVP2,2013-02-28 06:15:00,
2013-02-28 01:20:00,32.5,31.0,29.63,WSW,238,5.0,10.0,94,0.00,,OVC OVC///CB,0.00,WUHU216DAVISVP2,2013-02-28 06:20:00,
2013-02-28 01:25:00,32.6,31.1,29.63,SSW,208,4.0,10.0,94,0.00,,OVC OVC///CB,0.00,WUHU216DAVISVP2,2013-02-28 06:25:00,
2013-02-28 01:30:00,32.6,31.1,29.63,SW,232,6.0,10.0,94,0.00,,OVC OVC///CB,0.00,WUHU216DAVISVP2,2013-02-28 06:30:00,
2013-02-28 01:35:00,32.6,31.1,29.63,SW,218,3.0,10.0,94,0.00,,OVC OVC///CB,0.00,WUHU216DAVISVP2,2013-02-28 06:35:00,
2013-02-28 01:40:00,32.6,31.1,29.63,SW,222,6.0,10.0,94,0.00,,OVC OVC///CB,0.00,WUHU216DAVISVP2,2013-02-28 06:40:00,
2013-02-28 01:45:00,32.5,31.0,29.63,SW,225,4.0,9.0,94,0.00,,OVC OVC///CB,0.00,WUHU216DAVISVP2,2013-02-28 06:45:00,
2013-02-28 01:50:00,32.5,31.0,29.63,West,260,6.0,11.0,94,0.00,,OVC OVC///CB,0.00,WUHU216DAVISVP2,2013-02-28 06:50:00,
2013-02-28 01:55:00,32.6,31.1,29.63,SW,218,3.0,11.0,94,0.00,,OVC OVC///CB,0.00,WUHU216DAVISVP2,2013-02-28 06:55:00,
2013-02-28 02:00:00,32.6,31.1,29.63,WSW,243,3.0,12.0,94,0.00,,OVC OVC///CB,0.00,WUHU216DAVISVP2,2013-02-28 07:00:00,
2013-02-28 02:05:00,32.5,31.0,29.63,SW,235,6.0,12.0,94,0.00,,OVC OVC///CB,0.00,WUHU216DAVISVP2,2013-02-28 07:05:00,
2013-02-28 02:10:00,32.5,31.0,29.63,SW,235,5.0,11.0,94,0.00,,OVC OVC///CB,0.00,WUHU216DAVISVP2,2013-02-28 07:10:00,
2013-02-28 02:15:00,32.6,31.1,29.63,SW,228,8.0,10.0,94,0.00,,OVC OVC///CB,0.00,WUHU216DAVISVP2,2013-02-28 07:15:00,
2013-02-28 02:20:00,32.6,31.1,29.63,WSW,250,2.0,10.0,94,0.00,,OVC OVC///CB,0.00,WUHU216DAVISVP2,2013-02-28 07:20:00,
2013-02-28 02:25:00,32.6,31.1,29.63,SW,215,4.0,10.0,94,0.00,,OVC OVC///CB,0.00,WUHU216DAVISVP2,2013-02-28 07:25:00,
2013-02-28 02:30:00,32.6,31.1,29.63,SW,232,4.0,10.0,94,0.00,,OVC OVC///CB,0.00,WUHU216DAVISVP2,2013-02-28 07:30:00,
2013-02-28 02:35:00,32.6,31.1,29.63,SW,214,11.0,11.0,94,0.00,,OVC OVC///CB,0.00,WUHU216DAVISVP2,2013-02-28 07:35:00,
2013-02-28 02:40:00,32.5,31.0,29.63,SW,232,3.0,12.0,94,0.00,,OVC OVC///CB,0.00,WUHU216DAVISVP2,2013-02-28 07:40:00,
2013-02-28 02:45:00,32.4,31.2,29.63,West,269,1.0,16.0,95,0.00,,OVC OVC///CB,0.00,WUHU216DAVISVP2,2013-02-28 07:45:00,
2013-02-28 02:50:00,32.3,31.1,29.63,WNW,293,2.0,16.0,95,0.00,,OVC OVC///CB,0.00,WUHU216DAVISVP2,2013-02-28 07:50:00,
2013-02-28 02:55:00,32.1,31.2,29.63,NW,310,2.0,15.0,96,0.00,,OVC OVC///CB,0.00,WUHU216DAVISVP2,2013-02-28 07:55:00,
2013-02-28 03:00:00,32.1,31.2,29.63,West,277,2.0,15.0,96,0.00,,OVC OVC///CB,0.00,WUHU216DAVISVP2,2013-02-28 08:00:00,
2013-02-28 03:05:00,32.0,31.1,29.62,West,271,3.0,7.0,96,0.00,,OVC OVC///CB,0.00,WUHU216DAVISVP2,2013-02-28 08:05:00,
2013-02-28 03:10:00,32.1,31.2,29.62,West,259,3.0,9.0,96,0.00,,OVC OVC///CB,0.00,WUHU216DAVISVP2,2013-02-28 08:10:00,
2013-02-28 03:15:00,32.1,31.2,29.62,WSW,249,3.0,9.0,96,0.00,,OVC OVC///CB,0.00,WUHU216DAVISVP2,2013-02-28 08:15:00,
2013-02-28 03:20:00,32.0,30.8,29.62,West,263,5.0,8.0,95,0.00,,OVC OVC///CB,0.00,WUHU216DAVISVP2,2013-02-28 08:20:00,
2013-02-28 03:25:00,32.0,30.8,29.62,SW,235,4.0,10.0,95,0.00,,OVC OVC///CB,0.00,WUHU216DAVISVP2,2013-02-28 08:25:00,
2013-02-28 03:30:00,32.0,30.8,29.62,West,266,4.0,10.0,95,0.00,,OVC OVC///CB,0.00,WUHU216DAVISVP2,2013-02-28 08:30:00,
2013-02-28 03:35:00,32.0,30.8,29.62,WSW,243,4.0,10.0,95,0.00,,OVC OVC///CB,0.00,WUHU216DAVISVP2,2013-02-28 08:35:00,
2013-02-28 03:40:00,32.0,30.8,29.62,SW,232,3.0,10.0,95,0.00,,OVC OVC///CB,0.00,WUHU216DAVISVP2,2013-02-28 08:40:00,
2013-02-28 03:45:00,32.0,30.5,29.62,WNW,288,10.0,10.0,94,0.00,,OVC OVC///CB,0.00,WUHU216DAVISVP2,2013-02-28 08:45:00,
2013-02-28 03:50:00,32.0,30.5,29.62,WSW,248,3.0,10.0,94,0.00,,OVC OVC///CB,0.00,WUHU216DAVISVP2,2013-02-28 08:50:00,
2013-02-28 03:55:00,32.0,30.3,29.61,WNW,288,1.0,10.0,93,0.00,,OVC OVC///CB,0.00,WUHU216DAVISVP2,2013-02-28 08:55:00,
2013-02-28 04:00:00,32.0,30.0,29.62,West,269,5.0,11.0,92,0.00,,OVC OVC///CB,0.00,WUHU216DAVISVP2,2013-02-28 09:00:00,
2013-02-28 04:05:00,32.0,29.5,29.62,WSW,239,6.0,14.0,90,0.00,,OVC OVC///CB,0.00,WUHU216DAVISVP2,2013-02-28 09:05:00,
2013-02-28 04:10:00,32.0,29.5,29.61,West,274,3.0,14.0,90,0.00,,OVC OVC///CB,0.00,WUHU216DAVISVP2,2013-02-28 09:10:00,
2013-02-28 04:15:00,31.8,29.3,29.61,WSW,240,2.0,13.0,90,0.00,,OVC OVC///CB,0.00,WUHU216DAVISVP2,2013-02-28 09:15:00,
2013-02-28 04:20:00,31.8,29.3,29.61,WSW,238,4.0,13.0,90,0.00,,OVC OVC///CB,0.00,WUHU216DAVISVP2,2013-02-28 09:20:00,
2013-02-28 04:25:00,31.8,29.3,29.61,WSW,252,2.0,11.0,90,0.00,,OVC OVC///CB,0.00,WUHU216DAVISVP2,2013-02-28 09:25:00,
2013-02-28 04:30:00,31.8,29.5,29.61,SW,226,6.0,11.0,91,0.00,,OVC OVC///CB,0.00,WUHU216DAVISVP2,2013-02-28 09:30:00,
2013-02-28 04:35:00,31.8,29.5,29.61,West,279,2.0,11.0,91,0.00,,OVC OVC///CB,0.00,WUHU216DAVISVP2,2013-02-28 09:35:00,
2013-02-28 04:40:00,31.7,29.4,29.62,WSW,248,4.0,10.0,91,0.00,,OVC OVC///CB,0.00,WUHU216DAVISVP2,2013-02-28 09:40:00,
2013-02-28 04:45:00,31.7,29.2,29.62,SW,219,5.0,10.0,90,0.00,,OVC OVC///CB,0.00,WUHU216DAVISVP2,2013-02-28 09:45:00,
2013-02-28 04:50:00,31.8,29.0,29.62,WSW,250,7.0,12.0,89,0.00,,OVC OVC///CB,0.00,WUHU216DAVISVP2,2013-02-28 09:50:00,
2013-02-28 04:55:00,31.8,29.0,29.62,SW,236,9.0,12.0,89,0.00,,OVC OVC///CB,0.00,WUHU216DAVISVP2,2013-02-28 09:55:00,
2013-02-28 05:00:00,31.8,29.0,29.62,West,266,2.0,11.0,89,0.00,,OVC OVC///CB,0.00,WUHU216DAVISVP2,2013-02-28 10:00:00,
2013-02-28 05:05:00,31.8,29.0,29.63,SW,232,6.0,13.0,89,0.00,,OVC OVC///CB,0.00,WUHU216DAVISVP2,2013-02-28 10:05:00,
2013-02-28 05:10:00,31.8,29.0,29.63,WSW,244,4.0,13.0,89,0.00,,OVC OVC///CB,0.00,WUHU216DAVISVP2,2013-02-28 10:10:00,
2013-02-28 05:15:00,31.7,28.9,29.63,WSW,258,2.0,13.0,89,0.00,,OVC OVC///CB,0.00,WUHU216DAVISVP2,2013-02-28 10:15:00,
2013-02-28 05:20:00,31.7,28.9,29.63,WSW,243,5.0,13.0,89,0.00,,OVC OVC///CB,0.00,WUHU216DAVISVP2,2013-02-28 10:20:00,
2013-02-28 05:25:00,31.7,28.9,29.63,WSW,238,2.0,11.0,89,0.00,,OVC OVC///CB,0.00,WUHU216DAVISVP2,2013-02-28 10:25:00,
2013-02-28 05:30:00,31.6,28.8,29.63,West,277,2.0,11.0,89,0.00,,OVC OVC///CB,0.00,WUHU216DAVISVP2,2013-02-28 10:30:00,
2013-02-28 05:35:00,31.6,28.8,29.63,WNW,288,2.0,10.0,89,0.00,,OVC OVC///CB,0.00,WUHU216DAVISVP2,2013-02-28 10:35:00,
2013-02-28 05:40:00,31.6,29.1,29.63,West,279,2.0,10.0,90,0.00,,OVC OVC///CB,0.00,WUHU216DAVISVP2,2013-02-28 10:40:00,
2013-02-28 05:45:00,31.6,29.1,29.63,WSW,252,2.0,10.0,90,0.00,,OVC OVC///CB,0.00,WUHU216DAVISVP2,2013-02-28 10:45:00,
2013-02-28 05:50:00,31.6,29.1,29.63,West,263,4.0,9.0,90,0.00,,OVC OVC///CB,0.00,WUHU216DAVISVP2,2013-02-28 10:50:00,
2013-02-28 05:55:00,31.6,29.1,29.63,SW,229,4.0,9.0,90,0.00,,OVC OVC///CB,0.00,WUHU216DAVISVP2,2013-02-28 10:55:00,
2013-02-28 06:00:00,31.6,29.1,29.63,WSW,242,1.0,11.0,90,0.00,,OVC OVC///CB,0.00,WUHU216DAVISVP2,2013-02-28 11:00:00,
2013-02-28 06:05:00,31.6,29.1,29.63,WSW,240,1.0,11.0,90,0.00,,OVC OVC///CB,0.00,WUHU216DAVISVP2,2013-02-28 11:05:00,
2013-02-28 06:10:00,31.6,29.1,29.63,West,261,7.0,11.0,90,0.00,,OVC OVC///CB,0.00,WUHU216DAVISVP2,2013-02-28 11:10:00,
2013-02-28 06:15:00,31.6,29.3,29.63,SW,235,2.0,11.0,91,0.00,,OVC OVC///CB,0.00,WUHU216DAVISVP2,2013-02-28 11:15:00,
2013-02-28 06:20:00,31.6,29.3,29.63,WSW,248,5.0,11.0,91,0.00,,OVC OVC///CB,0.00,WUHU216DAVISVP2,2013-02-28 11:20:00,
2013-02-28 06:25:00,31.6,29.3,29.63,WSW,243,2.0,11.0,91,0.00,,OVC OVC///CB,0.00,WUHU216DAVISVP2,2013-02-28 11:25:00,
2013-02-28 06:30:00,31.6,29.3,29.63,West,278,2.0,10.0,91,0.00,,OVC OVC///CB,0.00,WUHU216DAVISVP2,2013-02-28 11:30:00,
2013-02-28 06:35:00,31.6,29.3,29.63,West,268,2.0,10.0,91,0.00,,OVC OVC///CB,0.00,WUHU216DAVISVP2,2013-02-28 11:35:00,
2013-02-28 06:40:00,31.6,29.3,29.63,WSW,244,1.0,9.0,91,0.00,,OVC OVC///CB,0.00,WUHU216DAVISVP2,2013-02-28 11:40:00,
2013-02-28 06:45:00,31.6,29.3,29.63,West,262,3.0,11.0,91,0.00,,OVC OVC///CB,0.00,WUHU216DAVISVP2,2013-02-28 11:45:00,
2013-02-28 06:50:00,31.6,29.6,29.63,WSW,256,4.0,11.0,92,0.00,,OVC OVC///CB,0.00,WUHU216DAVISVP2,2013-02-28 11:50:00,
2013-02-28 06:55:00,31.6,29.6,29.63,WSW,245,8.0,10.0,92,0.00,,OVC OVC///CB,0.00,WUHU216DAVISVP2,2013-02-28 11:55:00,
2013-02-28 07:00:00,31.5,29.5,29.63,SSW,208,4.0,11.0,92,0.00,,OVC OVC///CB,0.00,WUHU216DAVISVP2,2013-02-28 12:00:00,
2013-02-28 07:05:00,31.6,29.6,29.63,WSW,248,2.0,11.0,92,0.00,,OVC OVC///CB,0.00,WUHU216DAVISVP2,2013-02-28 12:05:00,
2013-02-28 07:10:00,31.6,29.6,29.63,SW,232,2.0,10.0,92,0.00,,OVC OVC///CB,0.00,WUHU216DAVISVP2,2013-02-28 12:10:00,
2013-02-28 07:15:00,31.6,29.6,29.63,WSW,243,2.0,9.0,92,0.00,,OVC OVC///CB,0.00,WUHU216DAVISVP2,2013-02-28 12:15:00,
2013-02-28 07:20:00,31.6,29.6,29.63,WSW,238,3.0,9.0,92,0.00,,OVC OVC///CB,0.00,WUHU216DAVISVP2,2013-02-28 12:20:00,
2013-02-28 07:25:00,31.6,29.6,29.64,SW,226,3.0,8.0,92,0.00,,OVC OVC///CB,0.00,WUHU216DAVISVP2,2013-02-28 12:25:00,
2013-02-28 07:30:00,31.6,29.6,29.63,WSW,251,4.0,8.0,92,0.00,,OVC OVC///CB,0.00,WUHU216DAVISVP2,2013-02-28 12:30:00,
2013-02-28 07:35:00,31.6,29.6,29.64,WSW,248,3.0,8.0,92,0.00,,OVC OVC///CB,0.00,WUHU216DAVISVP2,2013-02-28 12:35:00,
2013-02-28 07:40:00,31.7,29.7,29.64,WSW,248,2.0,9.0,92,0.00,,OVC OVC///CB,0.00,WUHU216DAVISVP2,2013-02-28 12:40:00,
2013-02-28 07:45:00,31.6,29.6,29.64,WSW,255,3.0,9.0,92,0.00,,OVC OVC///CB,0.00,WUHU216DAVISVP2,2013-02-28 12:45:00,
2013-02-28 07:50:00,31.7,29.7,29.64,SW,232,8.0,11.0,92,0.00,,OVC OVC///CB,0.00,WUHU216DAVISVP2,2013-02-28 12:50:00,
2013-02-28 07:55:00,31.7,29.7,29.64,SW,232,2.0,11.0,92,0.00,,OVC OVC///CB,0.00,WUHU216DAVISVP2,2013-02-28 12:55:00,
2013-02-28 08:00:00,31.7,29.7,29.64,SW,232,3.0,11.0,92,0.00,,OVC OVC///CB,0.00,WUHU216DAVISVP2,2013-02-28 13:00:00,
2013-02-28 08:05:00,31.8,29.8,29.64,SSW,207,2.0,10.0,92,0.00,,OVC OVC///CB,0.00,WUHU216DAVISVP2,2013-02-28 13:05:00,
2013-02-28 08:10:00,31.7,30.0,29.64,WSW,239,4.0,9.0,93,0.00,,OVC OVC///CB,0.00,WUHU216DAVISVP2,2013-02-28 13:10:00,
2013-02-28 08:15:00,31.8,30.1,29.64,WSW,240,4.0,8.0,93,0.00,,OVC OVC///CB,0.00,WUHU216DAVISVP2,2013-02-28 13:15:00,
2013-02-28 08:20:00,31.8,30.1,29.64,SW,218,3.0,13.0,93,0.00,,OVC OVC///CB,0.00,WUHU216DAVISVP2,2013-02-28 13:20:00,
2013-02-28 08:25:00,31.8,30.1,29.64,WSW,243,7.0,13.0,93,0.00,,OVC OVC///CB,0.00,WUHU216DAVISVP2,2013-02-28 13:25:00,
2013-02-28 08:30:00,31.8,30.1,29.64,WSW,245,4.0,12.0,93,0.00,,OVC OVC///CB,0.00,WUHU216DAVISVP2,2013-02-28 13:30:00,
2013-02-28 08:35:00,31.8,30.1,29.64,West,277,4.0,12.0,93,0.00,,OVC OVC///CB,0.00,WUHU216DAVISVP2,2013-02-28 13:35:00,
2013-02-28 08:40:00,31.8,30.1,29.64,WSW,245,7.0,11.0,93,0.00,,OVC OVC///CB,0.00,WUHU216DAVISVP2,2013-02-28 13:40:00,
2013-02-28 08:45:00,31.9,30.2,29.64,WSW,248,4.0,11.0,93,0.00,,OVC OVC///CB,0.00,WUHU216DAVISVP2,2013-02-28 13:45:00,
2013-02-28 08:50:00,32.0,30.3,29.64,West,262,2.0,8.0,93,0.00,,OVC OVC///CB,0.00,WUHU216DAVISVP2,2013-02-28 13:50:00,
2013-02-28 08:55:00,32.0,30.3,29.64,West,281,6.0,9.0,93,0.00,,OVC OVC///CB,0.00,WUHU216DAVISVP2,2013-02-28 13:55:00,
2013-02-28 09:00:00,32.0,30.3,29.64,SW,232,4.0,9.0,93,0.00,,OVC OVC///CB,0.00,WUHU216DAVISVP2,2013-02-28 14:00:00,
2013-02-28 09:05:00,32.0,30.3,29.65,WSW,242,6.0,10.0,93,0.00,,OVC OVC///CB,0.00,WUHU216DAVISVP2,2013-02-28 14:05:00,
2013-02-28 09:10:00,32.0,30.3,29.65,WSW,238,4.0,10.0,93,0.00,,OVC OVC///CB,0.00,WUHU216DAVISVP2,2013-02-28 14:10:00,
2013-02-28 09:15:00,32.0,30.3,29.65,WSW,238,1.0,10.0,93,0.00,,OVC OVC///CB,0.00,WUHU216DAVISVP2,2013-02-28 14:15:00,
2013-02-28 09:20:00,32.0,30.5,29.65,SW,226,6.0,10.0,94,0.00,,OVC OVC///CB,0.00,WUHU216DAVISVP2,2013-02-28 14:20:00,
2013-02-28 09:25:00,31.9,30.4,29.65,WSW,250,3.0,10.0,94,0.00,,OVC OVC///CB,0.00,WUHU216DAVISVP2,2013-02-28 14:25:00,
2013-02-28 09:30:00,31.8,30.6,29.65,SW,228,2.0,10.0,95,0.00,,OVC OVC///CB,0.00,WUHU216DAVISVP2,2013-02-28 14:30:00,
2013-02-28 09:35:00,31.8,30.6,29.65,West,259,5.0,10.0,95,0.00,,OVC OVC///CB,0.00,WUHU216DAVISVP2,2013-02-28 14:35:00,
2013-02-28 09:40:00,31.8,30.9,29.65,WSW,249,4.0,11.0,96,0.00,,OVC OVC///CB,0.00,WUHU216DAVISVP2,2013-02-28 14:40:00,
2013-02-28 09:45:00,31.7,30.8,29.65,SW,225,4.0,11.0,96,0.00,,OVC OVC///CB,0.00,WUHU216DAVISVP2,2013-02-28 14:45:00,
2013-02-28 09:50:00,31.8,31.1,29.65,SW,224,4.0,11.0,97,0.00,,OVC OVC///CB,0.00,WUHU216DAVISVP2,2013-02-28 14:50:00,
2013-02-28 09:55:00,31.7,31.0,29.65,SW,223,3.0,10.0,97,0.00,,OVC OVC///CB,0.00,WUHU216DAVISVP2,2013-02-28 14:55:00,
2013-02-28 10:00:00,31.8,31.1,29.65,WSW,245,4.0,9.0,97,0.00,,OVC OVC///CB,0.00,WUHU216DAVISVP2,2013-02-28 15:00:00,
2013-02-28 10:05:00,31.8,31.1,29.65,WSW,238,5.0,10.0,97,0.00,,OVC OVC///CB,0.00,WUHU216DAVISVP2,2013-02-28 15:05:00,
2013-02-28 10:10:00,31.8,31.1,29.65,WSW,252,4.0,10.0,97,0.00,,OVC OVC///CB,0.00,WUHU216DAVISVP2,2013-02-28 15:10:00,
2013-02-28 10:15:00,31.9,31.2,29.65,West,266,5.0,10.0,97,0.00,,OVC OVC///CB,0.00,WUHU216DAVISVP2,2013-02-28 15:15:00,
2013-02-28 10:20:00,32.0,31.3,29.65,SW,229,2.0,10.0,97,0.00,,OVC OVC///CB,0.00,WUHU216DAVISVP2,2013-02-28 15:20:00,
2013-02-28 10:25:00,32.2,31.8,29.65,WSW,250,1.0,9.0,98,0.00,,OVC OVC///CB,0.00,WUHU216DAVISVP2,2013-02-28 15:25:00,
2013-02-28 10:30:00,32.3,31.6,29.65,WSW,258,2.0,9.0,97,0.00,,OVC OVC///CB,0.00,WUHU216DAVISVP2,2013-02-28 15:30:00,
2013-02-28 10:35:00,32.5,32.1,29.65,WSW,238,2.0,9.0,98,0.00,,OVC OVC///CB,0.00,WUHU216DAVISVP2,2013-02-28 15:35:00,
2013-02-28 10:40:00,32.6,31.9,29.65,West,259,4.0,9.0,97,0.00,,OVC OVC///CB,0.00,WUHU216DAVISVP2,2013-02-28 15:40:00,
2013-02-28 10:45:00,32.7,32.0,29.66,SW,224,1.0,9.0,97,0.00,,OVC OVC///CB,0.00,WUHU216DAVISVP2,2013-02-28 15:45:00,
2013-02-28 10:50:00,32.6,31.9,29.66,West,276,2.0,13.0,97,0.00,,OVC OVC///CB,0.00,WUHU216DAVISVP2,2013-02-28 15:50:00,
2013-02-28 10:55:00,32.7,32.0,29.66,WSW,238,6.0,13.0,97,0.00,,OVC OVC///CB,0.00,WUHU216DAVISVP2,2013-02-28 15:55:00,
2013-02-28 11:00:00,32.7,32.0,29.66,SW,230,6.0,12.0,97,0.00,,OVC OVC///CB,0.00,WUHU216DAVISVP2,2013-02-28 16:00:00,
2013-02-28 11:05:00,32.7,32.0,29.66,WSW,245,2.0,12.0,97,0.00,,OVC OVC///CB,0.00,WUHU216DAVISVP2,2013-02-28 16:05:00,
2013-02-28 11:10:00,32.8,32.1,29.66,WSW,245,3.0,11.0,97,0.00,,OVC OVC///CB,0.00,WUHU216DAVISVP2,2013-02-28 16:10:00,
2013-02-28 11:15:00,32.9,32.0,29.66,WSW,257,4.0,7.0,96,0.00,,OVC OVC///CB,0.00,WUHU216DAVISVP2,2013-02-28 16:15:00,
2013-02-28 11:20:00,32.9,32.0,29.66,WSW,256,6.0,10.0,96,0.00,,OVC OVC///CB,0.00,WUHU216DAVISVP2,2013-02-28 16:20:00,
2013-02-28 11:25:00,33.0,32.1,29.66,West,264,3.0,10.0,96,0.00,,OVC OVC///CB,0.00,WUHU216DAVISVP2,2013-02-28 16:25:00,
2013-02-28 11:30:00,33.1,31.9,29.66,WSW,239,0.0,10.0,95,0.00,,OVC OVC///CB,0.00,WUHU216DAVISVP2,2013-02-28 16:30:00,
2013-02-28 11:35:00,33.1,31.9,29.66,WSW,255,3.0,12.0,95,0.00,,OVC OVC///CB,0.00,WUHU216DAVISVP2,2013-02-28 16:35:00,
2013-02-28 11:40:00,33.2,32.0,29.66,WSW,256,4.0,12.0,95,0.00,,OVC OVC///CB,0.00,WUHU216DAVISVP2,2013-02-28 16:40:00,
2013-02-28 11:45:00,33.1,31.6,29.67,SW,231,4.0,11.0,94,0.00,,OVC OVC///CB,0.00,WUHU216DAVISVP2,2013-02-28 16:45:00,
2013-02-28 11:50:00,33.2,32.0,29.66,WSW,242,2.0,11.0,95,0.00,,OVC OVC///CB,0.00,WUHU216DAVISVP2,2013-02-28 16:50:00,
2013-02-28 11:55:00,33.3,32.1,29.66,WSW,252,1.0,9.0,95,0.00,,OVC OVC///CB,0.00,WUHU216DAVISVP2,2013-02-28 16:55:00,
2013-02-28 12:00:00,33.3,32.1,29.66,West,266,4.0,9.0,95,0.00,,OVC OVC///CB,0.00,WUHU216DAVISVP2,2013-02-28 17:00:00,
2013-02-28 12:05:00,33.3,31.8,29.67,WSW,255,2.0,11.0,94,0.00,,OVC OVC///CB,0.00,WUHU216DAVISVP2,2013-02-28 17:05:00,
2013-02-28 12:10:00,33.4,32.2,29.66,WSW,255,5.0,11.0,95,0.00,,OVC OVC///CB,0.00,WUHU216DAVISVP2,2013-02-28 17:10:00,
2013-02-28 12:15:00,33.4,32.2,29.67,WSW,245,10.0,10.0,95,0.00,,OVC OVC///CB,0.00,WUHU216DAVISVP2,2013-02-28 17:15:00,
2013-02-28 12:20:00,33.5,32.0,29.67,West,273,2.0,11.0,94,0.00,,OVC OVC///CB,0.00,WUHU216DAVISVP2,2013-02-28 17:20:00,
2013-02-28 12:25:00,33.5,32.3,29.67,NW,309,2.0,11.0,95,0.00,,OVC OVC///CB,0.00,WUHU216DAVISVP2,2013-02-28 17:25:00,
2013-02-28 12:30:00,33.6,32.4,29.67,West,274,3.0,10.0,95,0.00,,OVC OVC///CB,0.00,WUHU216DAVISVP2,2013-02-28 17:30:00,
2013-02-28 12:35:00,33.7,32.5,29.66,WSW,257,5.0,10.0,95,0.00,,OVC OVC///CB,0.00,WUHU216DAVISVP2,2013-02-28 17:35:00,
2013-02-28 12:40:00,33.8,32.6,29.67,West,281,5.0,10.0,95,0.00,,OVC OVC///CB,0.00,WUHU216DAVISVP2,2013-02-28 17:40:00,
2013-02-28 12:45:00,33.9,32.4,29.67,WSW,250,2.0,10.0,94,0.00,,OVC OVC///CB,0.00,WUHU216DAVISVP2,2013-02-28 17:45:00,
2013-02-28 12:50:00,34.2,32.7,29.67,WNW,283,4.0,9.0,94,0.00,,OVC OVC///CB,0.00,WUHU216DAVISVP2,2013-02-28 17:50:00,
2013-02-28 12:55:00,34.3,32.8,29.67,NNW,330,6.0,9.0,94,0.00,,OVC OVC///CB,0.00,WUHU216DAVISVP2,2013-02-28 17:55:00,
2013-02-28 13:00:00,34.4,32.9,29.67,West,271,2.0,10.0,94,0.00,,OVC OVC///CB,0.00,WUHU216DAVISVP2,2013-02-28 18:00:00,
2013-02-28 13:05:00,34.5,33.0,29.67,West,281,2.0,10.0,94,0.00,,OVC OVC///CB,0.00,WUHU216DAVISVP2,2013-02-28 18:05:00,
2013-02-28 13:10:00,34.5,32.7,29.67,WNW,295,9.0,12.0,93,0.01,,OVC OVC///CB,0.01,WUHU216DAVISVP2,2013-02-28 18:10:00,
2013-02-28 13:15:00,34.4,32.6,29.67,WNW,297,4.0,12.0,93,0.01,,OVC OVC///CB,0.01,WUHU216DAVISVP2,2013-02-28 18:15:00,
2013-02-28 13:20:00,34.4,32.9,29.67,WSW,248,2.0,11.0,94,0.01,,OVC OVC///CB,0.01,WUHU216DAVISVP2,2013-02-28 18:20:00,
2013-02-28 13:25:00,34.5,33.0,29.67,West,269,1.0,10.0,94,0.01,,OVC OVC///CB,0.01,WUHU216DAVISVP2,2013-02-28 18:25:00,
2013-02-28 13:30:00,34.5,33.0,29.67,WNW,284,6.0,12.0,94,0.01,,OVC OVC///CB,0.01,WUHU216DAVISVP2,2013-02-28 18:30:00,
2013-02-28 13:35:00,34.2,33.0,29.67,West,269,5.0,12.0,95,0.01,,OVC OVC///CB,0.01,WUHU216DAVISVP2,2013-02-28 18:35:00,
2013-02-28 13:40:00,34.1,33.1,29.67,NW,324,1.0,11.0,96,0.01,,OVC OVC///CB,0.01,WUHU216DAVISVP2,2013-02-28 18:40:00,
2013-02-28 13:45:00,34.0,33.0,29.67,WNW,301,5.0,11.0,96,0.01,,OVC OVC///CB,0.01,WUHU216DAVISVP2,2013-02-28 18:45:00,
2013-02-28 13:50:00,33.9,32.9,29.67,WSW,253,4.0,9.0,96,0.01,,OVC OVC///CB,0.01,WUHU216DAVISVP2,2013-02-28 18:50:00,
2013-02-28 13:55:00,33.8,32.8,29.67,WNW,290,3.0,10.0,96,0.01,,OVC OVC///CB,0.01,WUHU216DAVISVP2,2013-02-28 18:55:00,
2013-02-28 14:00:00,33.7,32.7,29.67,WNW,288,6.0,10.0,96,0.01,,OVC OVC///CB,0.01,WUHU216DAVISVP2,2013-02-28 19:00:00,
2013-02-28 14:05:00,33.7,32.7,29.68,WNW,298,6.0,11.0,96,0.01,,OVC OVC///CB,0.01,WUHU216DAVISVP2,2013-02-28 19:05:00,
2013-02-28 14:10:00,33.7,32.7,29.68,NW,312,6.0,11.0,96,0.00,,OVC OVC///CB,0.01,WUHU216DAVISVP2,2013-02-28 19:10:00,
2013-02-28 14:15:00,33.7,32.5,29.68,West,267,4.0,12.0,95,0.00,,OVC OVC///CB,0.01,WUHU216DAVISVP2,2013-02-28 19:15:00,
2013-02-28 14:20:00,33.7,32.5,29.68,West,274,4.0,12.0,95,0.00,,OVC OVC///CB,0.01,WUHU216DAVISVP2,2013-02-28 19:20:00,
2013-02-28 14:25:00,33.7,32.5,29.68,WNW,288,6.0,12.0,95,0.00,,OVC OVC///CB,0.01,WUHU216DAVISVP2,2013-02-28 19:25:00,
2013-02-28 14:30:00,33.7,32.5,29.69,SW,232,3.0,12.0,95,0.00,,OVC OVC///CB,0.01,WUHU216DAVISVP2,2013-02-28 19:30:00,
2013-02-28 14:35:00,33.7,32.5,29.69,NW,322,8.0,13.0,95,0.00,,OVC OVC///CB,0.01,WUHU216DAVISVP2,2013-02-28 19:35:00,
2013-02-28 14:40:00,33.5,32.3,29.69,WNW,294,7.0,13.0,95,0.00,,OVC OVC///CB,0.01,WUHU216DAVISVP2,2013-02-28 19:40:00,
2013-02-28 14:45:00,33.4,32.5,29.69,NNW,335,6.0,13.0,96,0.00,,OVC OVC///CB,0.01,WUHU216DAVISVP2,2013-02-28 19:45:00,
2013-02-28 14:50:00,33.4,32.5,29.69,WNW,297,2.0,12.0,96,0.00,,OVC OVC///CB,0.01,WUHU216DAVISVP2,2013-02-28 19:50:00,
2013-02-28 14:55:00,33.3,32.4,29.70,NW,326,5.0,12.0,96,0.00,,OVC OVC///CB,0.01,WUHU216DAVISVP2,2013-02-28 19:55:00,
2013-02-28 15:00:00,33.2,32.5,29.70,NW,326,4.0,12.0,97,0.00,,OVC OVC///CB,0.01,WUHU216DAVISVP2,2013-02-28 20:00:00,
2013-02-28 15:05:00,33.1,32.4,29.70,NNW,339,3.0,11.0,97,0.00,,OVC OVC///CB,0.01,WUHU216DAVISVP2,2013-02-28 20:05:00,
2013-02-28 15:10:00,33.1,32.4,29.71,North,349,6.0,11.0,97,0.00,,OVC OVC///CB,0.01,WUHU216DAVISVP2,2013-02-28 20:10:00,
2013-02-28 15:15:00,33.0,32.3,29.71,NW,322,7.0,14.0,97,0.00,,OVC OVC///CB,0.01,WUHU216DAVISVP2,2013-02-28 20:15:00,
2013-02-28 15:20:00,33.0,32.3,29.71,NNW,340,8.0,14.0,97,0.00,,OVC OVC///CB,0.01,WUHU216DAVISVP2,2013-02-28 20:20:00,
2013-02-28 15:25:00,33.1,32.4,29.71,NNW,343,4.0,14.0,97,0.00,,OVC OVC///CB,0.01,WUHU216DAVISVP2,2013-02-28 20:25:00,
2013-02-28 15:30:00,33.0,32.3,29.72,WNW,295,4.0,14.0,97,0.00,,OVC OVC///CB,0.01,WUHU216DAVISVP2,2013-02-28 20:30:00,
2013-02-28 15:35:00,33.1,32.4,29.72,WNW,298,2.0,13.0,97,0.00,,OVC OVC///CB,0.01,WUHU216DAVISVP2,2013-02-28 20:35:00,
2013-02-28 15:40:00,33.1,32.4,29.72,NW,309,5.0,12.0,97,0.00,,OVC OVC///CB,0.01,WUHU216DAVISVP2,2013-02-28 20:40:00,
2013-02-28 15:45:00,33.0,32.3,29.72,NNW,338,0.0,12.0,97,0.00,,OVC OVC///CB,0.01,WUHU216DAVISVP2,2013-02-28 20:45:00,
2013-02-28 15:50:00,33.1,32.7,29.73,NW,312,2.0,9.0,98,0.00,,OVC OVC///CB,0.01,WUHU216DAVISVP2,2013-02-28 20:50:00,
2013-02-28 15:55:00,33.1,32.7,29.73,WNW,284,1.0,9.0,98,0.00,,OVC OVC///CB,0.01,WUHU216DAVISVP2,2013-02-28 20:55:00,
2013-02-28 16:00:00,33.1,32.7,29.73,NW,310,4.0,8.0,98,0.00,,OVC OVC///CB,0.01,WUHU216DAVISVP2,2013-02-28 21:00:00,
2013-02-28 16:05:00,32.9,32.5,29.73,West,274,2.0,7.0,98,0.00,,OVC OVC///CB,0.01,WUHU216DAVISVP2,2013-02-28 21:05:00,
2013-02-28 16:10:00,32.9,32.5,29.73,NW,317,3.0,7.0,98,0.00,,OVC OVC///CB,0.01,WUHU216DAVISVP2,2013-02-28 21:10:00,
2013-02-28 16:15:00,32.9,32.5,29.74,WNW,284,2.0,8.0,98,0.00,,OVC OVC///CB,0.01,WUHU216DAVISVP2,2013-02-28 21:15:00,
2013-02-28 16:20:00,33.0,32.6,29.74,WNW,285,1.0,8.0,98,0.00,,OVC OVC///CB,0.01,WUHU216DAVISVP2,2013-02-28 21:20:00,
2013-02-28 16:25:00,33.0,32.6,29.74,NW,306,2.0,8.0,98,0.00,,OVC OVC///CB,0.01,WUHU216DAVISVP2,2013-02-28 21:25:00,
2013-02-28 16:30:00,33.0,32.6,29.74,WSW,257,1.0,10.0,98,0.00,,OVC OVC///CB,0.01,WUHU216DAVISVP2,2013-02-28 21:30:00,
2013-02-28 16:35:00,33.1,32.7,29.74,WNW,297,4.0,10.0,98,0.00,,OVC OVC///CB,0.01,WUHU216DAVISVP2,2013-02-28 21:35:00,
2013-02-28 16:40:00,33.1,32.7,29.74,NNW,339,5.0,10.0,98,0.00,,OVC OVC///CB,0.01,WUHU216DAVISVP2,2013-02-28 21:40:00,
2013-02-28 16:45:00,33.2,32.5,29.74,NW,304,2.0,10.0,97,0.00,,OVC OVC///CB,0.01,WUHU216DAVISVP2,2013-02-28 21:45:00,
2013-02-28 16:50:00,33.3,32.6,29.74,West,264,4.0,9.0,97,0.00,,OVC OVC///CB,0.01,WUHU216DAVISVP2,2013-02-28 21:50:00,
2013-02-28 16:55:00,33.4,32.7,29.75,WNW,293,4.0,10.0,97,0.00,,OVC OVC///CB,0.01,WUHU216DAVISVP2,2013-02-28 21:55:00,
2013-02-28 17:00:00,33.3,32.6,29.75,NW,319,2.0,10.0,97,0.00,,OVC OVC///CB,0.01,WUHU216DAVISVP2,2013-02-28 22:00:00,
2013-02-28 17:05:00,33.3,32.6,29.75,WNW,300,3.0,10.0,97,0.00,,OVC OVC///CB,0.01,WUHU216DAVISVP2,2013-02-28 22:05:00,
2013-02-28 17:10:00,33.2,32.5,29.76,NNE,14,4.0,10.0,97,0.00,,OVC OVC///CB,0.01,WUHU216DAVISVP2,2013-02-28 22:10:00,
2013-02-28 17:15:00,33.0,32.3,29.76,NW,318,4.0,10.0,97,0.00,,OVC OVC///CB,0.01,WUHU216DAVISVP2,2013-02-28 22:15:00,
2013-02-28 17:20:00,32.9,32.2,29.76,NNW,333,3.0,10.0,97,0.00,,OVC OVC///CB,0.01,WUHU216DAVISVP2,2013-02-28 22:20:00,
2013-02-28 17:25:00,32.8,32.4,29.77,NNW,332,8.0,8.0,98,0.00,,OVC OVC///CB,0.01,WUHU216DAVISVP2,2013-02-28 22:25:00,
2013-02-28 17:30:00,32.6,32.2,29.77,WNW,287,2.0,14.0,98,0.00,,OVC OVC///CB,0.01,WUHU216DAVISVP2,2013-02-28 22:30:00,
2013-02-28 17:35:00,32.5,32.1,29.78,West,281,3.0,14.0,98,0.00,,OVC OVC///CB,0.01,WUHU216DAVISVP2,2013-02-28 22:35:00,
2013-02-28 17:40:00,32.5,32.1,29.78,North,355,3.0,14.0,98,0.00,,OVC OVC///CB,0.01,WUHU216DAVISVP2,2013-02-28 22:40:00,
2013-02-28 17:45:00,32.5,32.1,29.78,NW,312,3.0,14.0,98,0.00,,OVC OVC///CB,0.01,WUHU216DAVISVP2,2013-02-28 22:45:00,
2013-02-28 17:50:00,32.5,32.1,29.78,NNW,330,3.0,13.0,98,0.00,,OVC OVC///CB,0.01,WUHU216DAVISVP2,2013-02-28 22:50:00,
2013-02-28 17:55:00,32.5,32.1,29.79,North,4,11.0,11.0,98,0.00,,OVC OVC///CB,0.01,WUHU216DAVISVP2,2013-02-28 22:55:00,
2013-02-28 18:00:00,32.6,32.2,29.79,NNW,332,6.0,11.0,98,0.00,,OVC OVC///CB,0.01,WUHU216DAVISVP2,2013-02-28 23:00:00,
2013-02-28 18:05:00,32.7,32.3,29.79,WNW,294,3.0,11.0,98,0.00,,OVC OVC///CB,0.01,WUHU216DAVISVP2,2013-02-28 23:05:00,
2013-02-28 18:10:00,32.8,32.1,29.79,NNW,330,1.0,11.0,97,0.00,,OVC OVC///CB,0.01,WUHU216DAVISVP2,2013-02-28 23:10:00,
2013-02-28 18:15:00,32.9,32.2,29.80,NNW,335,4.0,11.0,97,0.00,,OVC OVC///CB,0.01,WUHU216DAVISVP2,2013-02-28 23:15:00,
2013-02-28 18:20:00,32.9,32.0,29.80,NW,314,7.0,11.0,96,0.00,,OVC OVC///CB,0.01,WUHU216DAVISVP2,2013-02-28 23:20:00,
2013-02-28 18:25:00,32.9,32.0,29.80,NNW,343,4.0,11.0,96,0.00,,OVC OVC///CB,0.01,WUHU216DAVISVP2,2013-02-28 23:25:00,
2013-02-28 18:30:00,33.0,32.1,29.81,WNW,287,7.0,11.0,96,0.00,,OVC OVC///CB,0.01,WUHU216DAVISVP2,2013-02-28 23:30:00,
2013-02-28 18:35:00,33.0,31.8,29.81,West,276,3.0,12.0,95,0.00,,OVC OVC///CB,0.01,WUHU216DAVISVP2,2013-02-28 23:35:00,
2013-02-28 18:40:00,32.9,31.7,29.82,WNW,302,11.0,12.0,95,0.00,,OVC OVC///CB,0.01,WUHU216DAVISVP2,2013-02-28 23:40:00,
2013-02-28 18:45:00,32.8,31.6,29.82,NW,326,6.0,12.0,95,0.00,,OVC OVC///CB,0.01,WUHU216DAVISVP2,2013-02-28 23:45:00,
2013-02-28 18:51:00,32.8,31.6,29.82,NNW,330,1.0,12.0,95,0.00,,OVC OVC///CB,0.01,WUHU216DAVISVP2,2013-02-28 23:51:00,
2013-02-28 18:55:00,32.8,31.6,29.82,North,359,7.0,12.0,95,0.00,,OVC OVC///CB,0.01,WUHU216DAVISVP2,2013-02-28 23:55:00,
2013-02-28 19:00:00,32.7,31.5,29.83,NW,307,4.0,12.0,95,0.00,,OVC OVC///CB,0.01,WUHU216DAVISVP2,2013-03-01 00:00:00,
2013-02-28 19:05:00,32.6,31.4,29.83,NW,314,4.0,12.0,95,0.00,,OVC OVC///CB,0.01,WUHU216DAVISVP2,2013-03-01 00:05:00,
2013-02-28 19:10:00,32.5,31.3,29.83,NNW,342,2.0,12.0,95,0.00,,OVC OVC///CB,0.01,WUHU216DAVISVP2,2013-03-01 00:10:00,
2013-02-28 19:15:00,32.4,31.2,29.83,WNW,302,1.0,12.0,95,0.00,,OVC OVC///CB,0.01,WUHU216DAVISVP2,2013-03-01 00:15:00,
2013-02-28 19:20:00,32.4,31.2,29.84,WNW,297,2.0,11.0,95,0.00,,OVC OVC///CB,0.01,WUHU216DAVISVP2,2013-03-01 00:20:00,
2013-02-28 19:25:00,32.3,31.4,29.84,NW,312,2.0,11.0,96,0.00,,OVC OVC///CB,0.01,WUHU216DAVISVP2,2013-03-01 00:25:00,
2013-02-28 19:30:00,32.2,31.3,29.85,NW,316,6.0,11.0,96,0.00,,OVC OVC///CB,0.01,WUHU216DAVISVP2,2013-03-01 00:30:00,
2013-02-28 19:35:00,32.1,31.2,29.85,WNW,297,3.0,10.0,96,0.00,,OVC OVC///CB,0.01,WUHU216DAVISVP2,2013-03-01 00:35:00,
2013-02-28 19:40:00,32.1,31.2,29.85,WNW,287,3.0,10.0,96,0.00,,OVC OVC///CB,0.01,WUHU216DAVISVP2,2013-03-01 00:40:00,
2013-02-28 19:45:00,32.0,31.1,29.85,West,274,7.0,10.0,96,0.00,,OVC OVC///CB,0.01,WUHU216DAVISVP2,2013-03-01 00:45:00,
2013-02-28 19:50:00,31.9,31.0,29.86,WNW,293,3.0,9.0,96,0.00,,OVC OVC///CB,0.01,WUHU216DAVISVP2,2013-03-01 00:50:00,
2013-02-28 19:56:00,31.8,30.9,29.86,WNW,285,1.0,9.0,96,0.00,,OVC OVC///CB,0.01,WUHU216DAVISVP2,2013-03-01 00:56:00,
2013-02-28 20:01:00,31.7,30.8,29.86,NW,316,4.0,9.0,96,0.00,,OVC OVC///CB,0.01,WUHU216DAVISVP2,2013-03-01 01:01:00,
2013-02-28 20:06:00,31.7,30.8,29.86,North,353,4.0,13.0,96,0.00,,OVC OVC///CB,0.01,WUHU216DAVISVP2,2013-03-01 01:06:00,
2013-02-28 20:11:00,31.6,30.7,29.86,NW,326,9.0,14.0,96,0.00,,OVC OVC///CB,0.01,WUHU216DAVISVP2,2013-03-01 01:11:00,
2013-02-28 20:16:00,31.5,30.6,29.87,West,278,4.0,14.0,96,0.00,,OVC OVC///CB,0.01,WUHU216DAVISVP2,2013-03-01 01:16:00,
2013-02-28 20:21:00,31.4,30.5,29.87,WNW,301,7.0,14.0,96,0.00,,OVC OVC///CB,0.01,WUHU216DAVISVP2,2013-03-01 01:21:00,
2013-02-28 20:26:00,31.3,30.4,29.87,West,278,3.0,14.0,96,0.00,,OVC OVC///CB,0.01,WUHU216DAVISVP2,2013-03-01 01:26:00,
2013-02-28 20:31:00,31.2,30.3,29.87,WNW,283,4.0,9.0,96,0.00,,OVC OVC///CB,0.01,WUHU216DAVISVP2,2013-03-01 01:31:00,
2013-02-28 20:36:00,31.0,30.1,29.88,North,1,4.0,9.0,96,0.00,,OVC OVC///CB,0.01,WUHU216DAVISVP2,2013-03-01 01:36:00,
2013-02-28 20:41:00,31.0,30.1,29.88,NNW,332,2.0,10.0,96,0.00,,OVC OVC///CB,0.01,WUHU216DAVISVP2,2013-03-01 01:41:00,
2013-02-28 20:46:00,30.9,30.0,29.88,WNW,284,2.0,11.0,96,0.00,,OVC OVC///CB,0.01,WUHU216DAVISVP2,2013-03-01 01:46:00,
2013-02-28 20:51:00,30.8,29.9,29.88,North,349,3.0,13.0,96,0.00,,OVC OVC///CB,0.01,WUHU216DAVISVP2,2013-03-01 01:51:00,
2013-02-28 20:56:00,30.7,29.8,29.88,NW,326,6.0,13.0,96,0.00,,OVC OVC///CB,0.01,WUHU216DAVISVP2,2013-03-01 01:56:00,
2013-02-28 21:01:00,30.8,29.9,29.88,NW,314,1.0,13.0,96,0.00,,OVC OVC///CB,0.01,WUHU216DAVISVP2,2013-03-01 02:01:00,
2013-02-28 21:06:00,30.8,29.9,29.88,NW,307,2.0,13.0,96,0.00,,OVC OVC///CB,0.01,WUHU216DAVISVP2,2013-03-01 02:06:00,
2013-02-28 21:11:00,30.8,29.9,29.89,North,11,6.0,11.0,96,0.00,,OVC OVC///CB,0.01,WUHU216DAVISVP2,2013-03-01 02:11:00,
2013-02-28 21:16:00,30.8,29.6,29.89,NNW,329,1.0,11.0,95,0.00,,OVC OVC///CB,0.01,WUHU216DAVISVP2,2013-03-01 02:16:00,
2013-02-28 21:21:00,30.9,29.7,29.89,WNW,301,7.0,11.0,95,0.00,,OVC OVC///CB,0.01,WUHU216DAVISVP2,2013-03-01 02:21:00,
2013-02-28 21:26:00,30.9,29.4,29.89,NW,323,3.0,13.0,94,0.00,,OVC OVC///CB,0.01,WUHU216DAVISVP2,2013-03-01 02:26:00,
2013-02-28 21:31:00,30.9,29.2,29.89,East,91,4.0,13.0,93,0.00,,OVC OVC///CB,0.01,WUHU216DAVISVP2,2013-03-01 02:31:00,
2013-02-28 21:36:00,30.9,29.2,29.89,NE,47,8.0,13.0,93,0.00,,OVC OVC///CB,0.01,WUHU216DAVISVP2,2013-03-01 02:36:00,
2013-02-28 21:41:00,30.8,29.1,29.89,WNW,302,3.0,13.0,93,0.00,,OVC OVC///CB,0.01,WUHU216DAVISVP2,2013-03-01 02:41:00,
2013-02-28 21:46:00,30.8,29.3,29.89,NW,311,2.0,11.0,94,0.00,,OVC OVC///CB,0.01,WUHU216DAVISVP2,2013-03-01 02:46:00,
2013-02-28 21:51:00,30.7,29.2,29.89,West,281,4.0,11.0,94,0.00,,OVC OVC///CB,0.01,WUHU216DAVISVP2,2013-03-01 02:51:00,
2013-02-28 21:56:00,30.6,29.1,29.89,WNW,300,3.0,11.0,94,0.00,,OVC OVC///CB,0.01,WUHU216DAVISVP2,2013-03-01 02:56:00,
2013-02-28 22:01:00,30.6,29.1,29.89,NNW,347,5.0,9.0,94,0.00,,OVC OVC///CB,0.01,WUHU216DAVISVP2,2013-03-01 03:01:00,
2013-02-28 22:06:00,30.7,29.0,29.89,NW,309,3.0,10.0,93,0.00,,OVC OVC///CB,0.01,WUHU216DAVISVP2,2013-03-01 03:06:00,
2013-02-28 22:11:00,30.8,28.8,29.89,WNW,298,2.0,12.0,92,0.00,,OVC OVC///CB,0.01,WUHU216DAVISVP2,2013-03-01 03:11:00,
2013-02-28 22:16:00,30.7,28.7,29.90,NW,314,6.0,12.0,92,0.00,,OVC OVC///CB,0.01,WUHU216DAVISVP2,2013-03-01 03:16:00,
2013-02-28 22:21:00,30.8,28.8,29.89,WNW,295,0.0,12.0,92,0.00,,OVC OVC///CB,0.01,WUHU216DAVISVP2,2013-03-01 03:21:00,
2013-02-28 22:26:00,30.7,28.7,29.89,North,4,2.0,10.0,92,0.00,,OVC OVC///CB,0.01,WUHU216DAVISVP2,2013-03-01 03:26:00,
2013-02-28 22:31:00,30.6,28.6,29.89,North,354,5.0,10.0,92,0.00,,OVC OVC///CB,0.01,WUHU216DAVISVP2,2013-03-01 03:31:00,
2013-02-28 22:36:00,30.6,28.6,29.89,North,360,5.0,13.0,92,0.00,,OVC OVC///CB,0.01,WUHU216DAVISVP2,2013-03-01 03:36:00,
2013-02-28 22:41:00,30.5,28.5,29.89,West,269,0.0,16.0,92,0.00,,OVC OVC///CB,0.01,WUHU216DAVISVP2,2013-03-01 03:41:00,
2013-02-28 22:46:00,30.4,28.7,29.89,North,3,6.0,16.0,93,0.00,,OVC OVC///CB,0.01,WUHU216DAVISVP2,2013-03-01 03:46:00,
2013-02-28 22:51:00,30.3,28.8,29.90,NW,319,2.0,16.0,94,0.00,,OVC OVC///CB,0.01,WUHU216DAVISVP2,2013-03-01 03:51:00,
2013-02-28 22:56:00,30.2,28.7,29.90,NW,304,4.0,16.0,94,0.00,,OVC OVC///CB,0.01,WUHU216DAVISVP2,2013-03-01 03:56:00,
2013-02-28 23:01:00,30.1,28.9,29.89,NE,46,8.0,14.0,95,0.00,,OVC OVC///CB,0.01,WUHU216DAVISVP2,2013-03-01 04:01:00,
2013-02-28 23:06:00,30.0,28.8,29.89,North,355,6.0,13.0,95,0.00,,OVC OVC///CB,0.01,WUHU216DAVISVP2,2013-03-01 04:06:00,
2013-02-28 23:11:00,29.9,28.7,29.89,NW,311,3.0,13.0,95,0.00,,OVC OVC///CB,0.01,WUHU216DAVISVP2,2013-03-01 04:11:00,
2013-02-28 23:16:00,29.9,28.7,29.89,WNW,288,6.0,10.0,95,0.00,,OVC OVC///CB,0.01,WUHU216DAVISVP2,2013-03-01 04:16:00,
2013-02-28 23:21:00,29.9,29.0,29.89,West,280,1.0,10.0,96,0.00,,OVC OVC///CB,0.01,WUHU216DAVISVP2,2013-03-01 04:21:00,
2013-02-28 23:26:00,29.9,29.0,29.89,WNW,283,1.0,10.0,96,0.00,,OVC OVC///CB,0.01,WUHU216DAVISVP2,2013-03-01 04:26:00,
2013-02-28 23:31:00,29.9,29.0,29.89,NNW,336,1.0,10.0,96,0.00,,OVC OVC///CB,0.01,WUHU216DAVISVP2,2013-03-01 04:31:00,
2013-02-28 23:36:00,29.9,29.0,29.89,WNW,290,1.0,9.0,96,0.00,,OVC OVC///CB,0.01,WUHU216DAVISVP2,2013-03-01 04:36:00,
2013-02-28 23:41:00,29.8,28.9,29.90,NNW,340,6.0,9.0,96,0.00,,OVC OVC///CB,0.01,WUHU216DAVISVP2,2013-03-01 04:41:00,
2013-02-28 23:46:00,29.8,28.9,29.89,North,11,4.0,9.0,96,0.00,,OVC OVC///CB,0.01,WUHU216DAVISVP2,2013-03-01 04:46:00,
2013-02-28 23:51:00,29.8,28.9,29.89,NW,313,5.0,9.0,96,0.00,,OVC OVC///CB,0.01,WUHU216DAVISVP2,2013-03-01 04:51:00,
2013-02-28 23:56:00,29.8,28.9,29.90,WNW,286,1.0,9.0,96,0.00,,OVC OVC///CB,0.01,WUHU216DAVISVP2,2013-03-01 04:56:00,